Weather History for KDVT - February, 2013

Change the Weather History Date:

Thursday, February 28, 2013

  Actual Average Record
Temperature  
Mean Temperature 56 °F -  
Max Temperature 68 °F 65 °F 82 °F (2009)
Min Temperature 43 °F 44 °F 39 °F (2011)
Degree Days  
Heating Degree Days 10    
Growing Degree Days 6 (Base 50)    
Moisture  
Dew Point 11 °F    
Average Humidity 17    
Maximum Humidity 28    
Minimum Humidity 10    
Precipitation  
Precipitation 0.00 in - - ()
Sea Level Pressure  
Sea Level Pressure 30.24 in    
Wind  
Wind Speed 5 mph (North)    
Max Wind Speed 13 mph    
Max Gust Speed -    
Visibility 10 miles    
Events      
Averages and records for this station are not official NWS values.
T = Trace of Precipitation, MM = Missing Value Source: NWS Daily Summary

Daily Weather History Graph

Daily Weather History Graph

Search for Another Location

Airport or City:

Trip Planner

Search our weather history database for the weather conditions in past years. The results will help you decide how hot, cold, wet, or windy it might be!

Date:

Astronomy

Feb. 28, 2013 Rise Set
Actual Time 6:57 AM MST 6:24 PM MST
Civil Twilight 6:32 AM MST 6:49 PM MST
Nautical Twilight 6:03 AM MST 7:18 PM MST
Astronomical Twilight 5:34 AM MST 7:47 PM MST
Moon 9:42 PM MST (2/28) 8:20 AM MST (2/28)
Length of Visible Light 12h 16m
Length of Day
11h 26m
Waning Gibbous, 90% of the Moon is Illuminated
Feb 28
Waning Gibbous
Mar 4
Last Quarter
Mar 11
New
Mar 19
First Quarter
Mar 27
Full

Hourly Weather History & Observations

Time (MST) Temp. Windchill Dew Point Humidity Pressure Visibility Wind Dir Wind Speed Gust Speed Precip Events Conditions
12:53 AM 48.0 °F - 12.0 °F 24% 30.20 in 10.0 mi North 5.8 mph - N/A   Clear
2:53 AM 45.0 °F 42.6 °F 10.0 °F 24% 30.20 in 10.0 mi NNE 4.6 mph - N/A   Clear
3:53 AM 43.0 °F - 12.0 °F 28% 30.21 in 10.0 mi Calm Calm - N/A   Clear
5:53 AM 44.1 °F 40.8 °F 9.0 °F 24% 30.25 in 10.0 mi NNE 5.8 mph - N/A   Clear
7:53 AM 48.9 °F - 7.0 °F 18% 30.27 in 10.0 mi North 8.1 mph - N/A   Clear
8:53 AM 54.0 °F - 10.0 °F 17% 30.27 in 10.0 mi ENE 8.1 mph - N/A   Clear
9:53 AM 59.0 °F - 5.0 °F 12% 30.28 in 10.0 mi Calm Calm - N/A   Clear
10:53 AM 61.0 °F - 5.0 °F 11% 30.27 in 10.0 mi East 5.8 mph - N/A   Clear
11:53 AM 63.0 °F - 6.1 °F 11% 30.27 in 10.0 mi North 3.5 mph - N/A   Clear
12:53 PM 63.0 °F - 6.1 °F 11% 30.26 in 10.0 mi Variable 4.6 mph - N/A   Clear
1:53 PM 66.9 °F - 8.1 °F 10% 30.22 in 10.0 mi Variable 4.6 mph - N/A   Clear
2:53 PM 68.0 °F - 9.0 °F 10% 30.20 in 10.0 mi Calm Calm - N/A   Clear
3:53 PM 68.0 °F - 9.0 °F 10% 30.20 in 10.0 mi West 6.9 mph - N/A   Clear
4:53 PM 68.0 °F - 10.0 °F 11% 30.20 in 10.0 mi WSW 10.4 mph - N/A   Clear
5:53 PM 66.9 °F - 8.1 °F 10% 30.19 in 10.0 mi West 6.9 mph - N/A   Clear
6:53 PM 64.0 °F - 9.0 °F 12% 30.21 in 10.0 mi WSW 3.5 mph - N/A   Clear
7:53 PM 57.9 °F - 17.1 °F 20% 30.23 in 10.0 mi NNW 3.5 mph - N/A   Clear
8:53 PM 55.0 °F - 19.0 °F 24% 30.24 in 10.0 mi East 4.6 mph - N/A   Clear
9:53 PM 53.1 °F - 19.9 °F 27% 30.25 in 10.0 mi NE 3.5 mph - N/A   Clear
10:53 PM 54.0 °F - 18.0 °F 24% 30.27 in 10.0 mi NNE 12.7 mph - N/A   Clear
11:53 PM 52.0 °F - 19.0 °F 27% 30.28 in 10.0 mi NNE 12.7 mph - N/A   Clear